This is the latest recevied weather packets stored in our database for station/object W5ADC. If no packets are shown the sender has not sent any weather packets the latest 10 day(s).
| Time | Temp. | Humidity | Pressure | Rain* | Wind** | Luminosity | Snow |
|---|---|---|---|---|---|---|---|
| 1787952620 | 37.22° C | 36% | 1011.5 hPa | 0 mm | - | 479 W/m² | - |
| 1787952319 | 38.33° C | 36% | 1011.5 hPa | 0 mm | - | 488 W/m² | - |
| 1787952015 | 37.78° C | 35% | 1011.5 hPa | 0 mm | - | 506 W/m² | - |
| 1787951709 | 37.78° C | 36% | 1011.4 hPa | 0 mm | - | 521 W/m² | - |
| 1787951405 | 37.78° C | 35% | 1011.9 hPa | 0 mm | - | 525 W/m² | - |
| 1787951101 | 36.67° C | 37% | 1012 hPa | 0 mm | - | 552 W/m² | - |
| 1787950796 | 37.22° C | 37% | 1012.2 hPa | 0 mm | - | 122 W/m² | - |
| 1787950491 | 37.78° C | 37% | 1012.2 hPa | 0 mm | - | 143 W/m² | - |
| 1787950188 | 38.33° C | 35% | 1012.2 hPa | 0 mm | - | 326 W/m² | - |
| 1787949884 | 38.33° C | 35% | 1012.2 hPa | 0 mm | - | 630 W/m² | - |
| 1787949584 | 37.78° C | 38% | 1012.3 hPa | 0 mm | - | 654 W/m² | - |
| 1787949279 | 37.22° C | 37% | 1012.5 hPa | 0 mm | - | 651 W/m² | - |
| 1787948974 | 37.78° C | 37% | 1012.4 hPa | 0 mm | - | 639 W/m² | - |
| 1787948670 | 36.67° C | 39% | 1012.7 hPa | 0 mm | - | 667 W/m² | - |
| 1787948365 | 37.78° C | 38% | 1012.9 hPa | 0 mm | - | 195 W/m² | - |
| 1787948064 | 37.78° C | 38% | 1012.8 hPa | 0 mm | - | 546 W/m² | - |
| 1787947763 | 37.22° C | 38% | 1013 hPa | 0 mm | - | 285 W/m² | - |
| 1787947458 | 38.33° C | 37% | 1013 hPa | 0 mm | - | 745 W/m² | - |
| 1787947158 | 38.33° C | 37% | 1013.1 hPa | 0 mm | - | 740 W/m² | - |
| 1787946857 | 36.67° C | 38% | 1013 hPa | 0 mm | - | 748 W/m² | - |
| 1787946555 | 37.22° C | 38% | 1013.2 hPa | 0 mm | - | 242 W/m² | - |
| 1787946251 | 37.22° C | 39% | 1013.2 hPa | 0 mm | - | 755 W/m² | - |
| 1787945950 | 37.22° C | 38% | 1013.2 hPa | 0 mm | - | 756 W/m² | - |
| 1787945645 | 37.22° C | 38% | 1013.3 hPa | 0 mm | - | 768 W/m² | - |
| 1787945339 | 36.67° C | 39% | 1013.5 hPa | 0 mm | - | 780 W/m² | - |
* Rain latest hour (hover to see other rain measurements)
** Current wind speed in m/s (hover to see current wind gust speed)